星链-31249 (STARLINK-31249 )

导读

STARLINK-31249是美国太空探索技术公司(SpaceX)发射的星链(Starlink)系列卫星,于2024年1月24日发射入轨,属于星链星座组网的组成部分。该卫星为星链第二代卫星,主要用于提供全球覆盖的高速低延迟互联网服务,助力SpaceX完成全球卫星互联网组网部署,目前已在轨运行超两年,为各类用户提供卫星通信服务。

基本信息
目录编号:
58838
目录名称:
STARLINK-31249
国际标识:
2024-017N
轨道中心:
EARTH
卫星名称:
星链-31249
卫星全名:
星链-31249 (STARLINK-31249 )
卫星状态:
在轨 (已飞行876 天)
发射日期:
2024-01-24 UTC
国别 :
美国 (US)
星等 :
--
轨道信息
数据来源 国际轨道数据
星历时间: 2026-06-17T10:06:06+0800
1天前
查看轨道信息
半长轴: 6853.366km
偏心率: 0.0001508
轨道倾角: 53.161°
近地点辐角 96.972°
升交点赤经 102.687°
平近点角 263.146°
近地点: 474.195km
远地点: 476.263km
周期: 94.106分钟
每日圈数: 15.301955
详细信息
固有亮度:
5
最大亮度:
0.3
卫星平台:
Starlink v2.0 mini
覆盖范围:
全球
运营商:
太空探索技术公司
运营商所在国:
美国
制造商(研发单位):
太空探索技术公司
制造商所在国:
美国
使用方式:
暂无
卫星简介
星链(Starlink)计划是由太空探索技术公司(SpaceX)提出的一个巨型低轨卫星互联网星座项目,计划在2019年至2024年间在太空搭建由约1.2万颗卫星组成的“星链”网络,其中1584颗将部署在地球上空550千米处的近地轨道,并从2020年开始工作。该卫星仍在工作。
2D轨道图
3D轨道图
轨道高度分析图
轨道倾角分析图
轨道综合分析图
查看轨道综合分析图